Terminal Aerodrome Forecast
Issued by NWS

Home | Current Version | Previous Version | Text Only | Print | Product List | Glossary Off
Versions: 1 2 3 4 5 6 7 8 9 10 11 12 13 14 15 16 17 18 19 20 21 22 23 24 25 26 27 28 29 30 31 32

000
FTUS43 KLOT 180056 AAB
TAFORD
TAF AMD
KORD 180056Z 1801/1906 19012KT 3SM -SHRADZ BR OVC007 WS020/21045KT
     FM180600 28004KT 1SM -DZ BR OVC004
     FM181200 35008KT 2SM -RADZ BR OVC004
     FM181500 36016G26KT 3SM RA BR BKN005 OVC015
     FM182000 34017G30KT P6SM VCSH OVC025=

USA.gov is the U.S. government's official web portal to all federal, state and local government web resources and services.